Date String (YYYY-MM-DD hh:mm:ss) UTC,Instrument flags,absolute air pressure of the measurement (hPa),sample flow rate (lpm),inlet stack bypass flow (lpm),air temperature of the measurement (°C),ambient temperature measured by the external sensor (°C),aerosol sample conditioner tube jacket temperature (°C),OPC LED temperature (°C),internal box temperature (°C),relative humidity of the measurement (%),span deviation,mass concentration of particles derived from Lorenz-Mie calculation of OPC scattering (μg/m³),mass concentration of particles derived from Lorenz-Mie calculation of OPC scattering (μg/m³),mass concentration of particles derived from Lorenz-Mie calculation of OPC scattering (μg/m³)
DateTimeUTC,F1_M11,P_M11,Q1_M11,Q2_M11,T1_M11,T2_M11,T3_M11,T4_M11,T5_M11,U1_M11,ZSPAN_M11,X2_M11,X0_M11,X1_M11
2024-04-30 14:00:00,SystemResetWarning,0823.9,5.02,000.00,023.9,023.0,000.0,032.4,025.5,023.4,0000.0,0000.22,0000.39,0000.11
2024-04-30 14:01:00,SystemResetWarning,0823.9,4.99,000.00,023.8,023.0,000.0,032.4,025.5,023.7,0000.0,0000.23,0000.42,0000.12
2024-04-30 14:02:00,SystemResetWarning,0823.8,4.99,000.00,023.8,022.9,000.0,032.4,025.5,023.9,0000.0,0000.25,0000.49,0000.12
2024-04-30 14:03:00,SystemResetWarning,0823.8,5.00,000.00,023.8,022.9,000.0,032.3,025.5,023.8,0000.0,0000.30,0000.61,0000.13
2024-04-30 14:04:00,SystemResetWarning,0823.8,5.00,000.00,023.8,022.9,000.0,032.3,025.5,023.5,0000.0,0000.31,0000.65,0000.13
2024-04-30 14:05:00,SystemResetWarning,0824.0,5.00,000.00,023.8,022.9,000.0,032.3,025.5,023.3,0000.0,0000.30,0000.66,0000.13
2024-04-30 14:06:00,SystemResetWarning,0824.1,5.01,000.00,023.8,022.9,000.0,032.3,025.5,023.2,0000.0,0000.31,0000.69,0000.13
2024-04-30 14:07:00,SystemResetWarning,0824.1,5.01,000.00,023.8,022.9,000.0,032.3,025.5,023.3,0000.0,0000.32,0000.77,0000.12
2024-04-30 14:08:00,SystemResetWarning,0824.0,5.00,000.00,023.8,022.9,000.0,032.3,025.5,023.2,0000.0,0000.36,0000.86,0000.12
2024-04-30 14:09:00,SystemResetWarning,0824.1,5.00,000.00,023.8,022.8,000.0,032.3,025.5,023.3,0000.0,0000.36,0000.87,0000.12
2024-04-30 14:10:00,SystemResetWarning,0824.1,4.99,000.00,023.7,022.8,000.0,032.3,025.5,023.2,0000.0,0000.36,0000.87,0000.12
2024-04-30 14:11:00,SystemResetWarning,0824.1,4.99,000.00,023.7,022.8,000.0,032.2,025.5,023.4,0000.0,0000.40,0000.99,0000.12
2024-04-30 14:12:00,SystemResetWarning,0823.9,5.00,000.00,023.7,022.8,000.0,032.2,025.5,023.4,0000.0,0000.42,0001.02,0000.13
2024-04-30 14:13:00,SystemResetWarning,0823.8,5.00,000.00,023.7,022.8,000.0,032.2,025.4,023.0,0000.0,0000.41,0001.05,0000.13
2024-04-30 14:14:00,SystemResetWarning,0823.8,5.00,000.00,023.7,022.8,000.0,032.2,025.4,022.7,0000.0,0000.40,0001.07,0000.14
2024-04-30 14:15:00,SystemResetWarning,0823.8,5.00,000.00,023.7,022.8,000.0,032.2,025.4,023.0,0000.0,0000.42,0001.10,0000.15
2024-04-30 14:16:00,SystemResetWarning,0823.8,5.00,000.00,023.7,022.8,000.0,032.2,025.4,023.2,0000.0,0000.44,0001.11,0000.16
2024-04-30 14:17:00,SystemResetWarning,0823.8,5.01,000.00,023.7,022.8,000.0,032.2,025.4,022.8,0000.0,0000.46,0001.14,0000.17
2024-04-30 14:18:00,SystemResetWarning,0823.8,5.00,000.00,023.7,022.8,000.0,032.2,025.4,022.5,0000.0,0000.47,0001.08,0000.18
2024-04-30 14:19:00,SystemResetWarning,0823.8,5.00,000.00,023.6,022.7,000.0,032.2,025.3,022.1,0000.0,0000.44,0001.02,0000.19
2024-04-30 14:20:00,SystemResetWarning,0823.8,4.98,000.00,023.6,022.7,000.0,032.2,025.4,022.1,0000.0,0000.45,0001.03,0000.20
2024-04-30 14:21:00,SystemResetWarning,0823.8,5.00,000.00,023.6,022.7,000.0,032.1,025.3,022.0,0000.0,0000.46,0001.06,0000.21
2024-04-30 14:22:00,SystemResetWarning,0823.8,5.00,000.00,023.6,022.7,000.0,032.1,025.3,022.1,0000.0,0000.43,0000.94,0000.21
2024-04-30 14:23:00,SystemResetWarning,0823.8,5.01,000.00,023.6,022.7,000.0,032.1,025.3,022.2,0000.0,0000.40,0000.87,0000.21
2024-04-30 14:24:00,SystemResetWarning,0823.8,5.00,000.00,023.6,022.7,000.0,032.1,025.3,022.5,0000.0,0000.42,0000.88,0000.21
2024-04-30 14:25:00,SystemResetWarning,0823.8,5.00,000.00,023.6,022.7,000.0,032.1,025.3,022.4,0000.0,0000.40,0000.74,0000.22
2024-04-30 14:26:00,SystemResetWarning,0823.8,4.99,000.00,023.6,022.7,000.0,032.1,025.4,022.3,0000.0,0000.40,0000.72,0000.22
2024-04-30 14:27:00,SystemResetWarning,0823.8,5.00,000.00,023.6,022.7,000.0,032.1,025.3,021.6,0000.0,0000.42,0000.76,0000.22
2024-04-30 14:28:00,SystemResetWarning,0823.8,5.00,000.00,023.6,022.7,000.0,032.1,025.3,021.5,0000.0,0000.43,0000.80,0000.22
2024-04-30 14:29:00,SystemResetWarning,0823.8,5.00,000.00,023.6,022.7,000.0,032.1,025.3,021.3,0000.0,0000.44,0000.84,0000.22
2024-04-30 14:30:00,SystemResetWarning,0823.9,5.01,000.00,023.6,022.7,000.0,032.1,025.3,020.8,0000.0,0000.46,0000.88,0000.22
2024-04-30 14:31:00,SystemResetWarning,0823.9,5.01,000.00,023.6,022.7,000.0,032.1,025.3,021.1,0000.0,0000.50,0000.97,0000.23
2024-04-30 14:32:00,SystemResetWarning,0823.9,4.99,000.00,023.6,022.7,000.0,032.1,025.3,021.1,0000.0,0000.50,0000.98,0000.22
2024-04-30 14:33:00,SystemResetWarning,0823.9,4.99,000.00,023.5,022.7,000.0,032.1,025.3,021.0,0000.0,0000.51,0001.00,0000.23
2024-04-30 14:34:00,SystemResetWarning,0823.8,4.99,000.00,023.5,022.7,000.0,032.1,025.3,020.5,0000.0,0000.52,0001.03,0000.23
2024-04-30 14:35:00,SystemResetWarning,0823.9,5.00,000.00,023.5,022.7,000.0,032.1,025.3,020.7,0000.0,0000.53,0001.04,0000.24
2024-04-30 14:36:00,SystemResetWarning,0823.9,5.00,000.00,023.5,022.7,000.0,032.1,025.3,020.9,0000.0,0000.55,0001.10,0000.24
2024-04-30 14:37:00,SystemResetWarning,0823.9,5.00,000.00,023.5,022.7,000.0,032.0,025.3,020.9,0000.0,0000.58,0001.41,0000.25
2024-04-30 14:38:00,SystemResetWarning,0823.9,5.01,000.00,023.5,022.7,000.0,032.0,025.3,021.1,0000.0,0000.60,0001.49,0000.26
2024-04-30 14:39:00,SystemResetWarning,0823.8,4.99,000.00,023.5,022.7,000.0,032.0,025.3,021.0,0000.0,0000.61,0001.60,0000.27
2024-04-30 14:40:00,SystemResetWarning,0823.8,5.00,000.00,023.5,022.7,000.0,032.0,025.3,020.2,0000.0,0000.67,0001.82,0000.30
2024-04-30 14:41:00,SystemResetWarning,0823.8,5.00,000.00,023.5,022.7,000.0,032.0,025.3,019.9,0000.0,0000.77,0002.03,0000.33
2024-04-30 14:42:00,SystemResetWarning,0823.9,5.00,000.00,023.5,022.7,000.0,032.0,025.3,020.3,0000.0,0000.83,0002.29,0000.35
2024-04-30 14:43:00,SystemResetWarning,0824.0,5.00,000.00,023.5,022.7,000.0,032.0,025.3,020.3,0000.0,0000.87,0002.47,0000.38
2024-04-30 14:44:00,SystemResetWarning,0824.0,5.00,000.00,023.5,022.7,000.0,032.0,025.3,020.2,0000.0,0000.91,0002.53,0000.40
2024-04-30 14:45:00,SystemResetWarning,0823.9,5.00,000.00,023.5,022.7,000.0,032.0,025.3,020.3,0000.0,0000.93,0002.68,0000.41
2024-04-30 14:46:00,SystemResetWarning,0824.0,5.00,000.00,023.5,022.7,000.0,032.0,025.2,020.3,0000.0,0000.95,0003.40,0000.43
2024-04-30 14:47:00,SystemResetWarning,0824.0,5.00,000.00,023.5,022.7,000.0,032.0,025.2,019.9,0000.0,0000.99,0004.30,0000.45
2024-04-30 14:48:00,SystemResetWarning,0824.0,5.01,000.00,023.5,022.7,000.0,032.0,025.2,020.3,0000.0,0001.04,0004.25,0000.46
2024-04-30 14:49:00,SystemResetWarning,0824.0,5.01,000.00,023.5,022.7,000.0,032.0,025.2,020.5,0000.0,0001.10,0004.32,0000.48
2024-04-30 14:50:00,SystemResetWarning,0824.0,5.00,000.00,023.5,022.6,000.0,032.0,025.2,020.6,0000.0,0001.20,0004.66,0000.49
2024-04-30 14:51:00,SystemResetWarning,0824.0,4.99,000.00,023.5,022.6,000.0,032.0,025.2,020.3,0000.0,0001.19,0004.62,0000.49
2024-04-30 14:52:00,SystemResetWarning,0824.1,4.99,000.00,023.5,022.7,000.0,032.0,025.2,020.2,0000.0,0001.13,0004.56,0000.49
2024-04-30 14:53:00,SystemResetWarning,0824.0,5.00,000.00,023.5,022.7,000.0,032.0,025.2,019.9,0000.0,0001.11,0004.42,0000.50
2024-04-30 14:54:00,SystemResetWarning,0824.0,5.01,000.00,023.5,022.7,000.0,032.0,025.2,019.6,0000.0,0001.11,0004.92,0000.51
2024-04-30 14:55:00,SystemResetWarning,0824.1,5.01,000.00,023.5,022.7,000.0,032.0,025.2,019.5,0000.0,0001.19,0005.31,0000.54
2024-04-30 14:56:00,SystemResetWarning,0824.1,4.99,000.00,023.5,022.7,000.0,032.0,025.2,019.1,0000.0,0001.25,0005.37,0000.57
2024-04-30 14:57:00,SystemResetWarning,0824.2,4.98,000.00,023.5,022.7,000.0,032.0,025.2,019.0,0000.0,0001.35,0004.96,0000.60
2024-04-30 14:58:00,SystemResetWarning,0824.1,5.00,000.00,023.5,022.7,000.0,032.0,025.2,018.7,0000.0,0001.44,0004.38,0000.65
2024-04-30 14:59:00,SystemResetWarning,0824.1,5.00,000.00,023.5,022.7,000.0,032.0,025.2,018.4,0000.0,0001.52,0004.56,0000.70
